This is the latest recevied weather packets stored in our database for station/object OK1PMP-6. If no packets are shown the sender has not sent any weather packets the latest 10 day(s).
| Time | Temp. | Humidity | Pressure | Rain* | Wind** | Luminosity | Snow |
|---|---|---|---|---|---|---|---|
| 1777544625 | 13.33° C | 28% | 1034.6 hPa | 0 mm | - | 718 W/m² | - |
| 1777543726 | 13.89° C | 31% | 1035 hPa | 0 mm | - | 713 W/m² | - |
| 1777542826 | 13.89° C | 30% | 1034.8 hPa | 0 mm | - | 705 W/m² | - |
| 1777541927 | 13.89° C | 29% | 1035 hPa | 0 mm | - | 688 W/m² | - |
| 1777541031 | 12.78° C | 30% | 1035 hPa | 0 mm | - | 676 W/m² | - |
| 1777540127 | 13.33° C | 31% | 1035.4 hPa | 0 mm | - | 660 W/m² | - |
| 1777539227 | 12.78° C | 32% | 1035.3 hPa | 0 mm | - | 640 W/m² | - |
| 1777538325 | 12.22° C | 32% | 1035.7 hPa | 0 mm | - | 619 W/m² | - |
| 1777537426 | 10.56° C | 34% | 1035.4 hPa | 0 mm | - | 602 W/m² | - |
| 1777536528 | 10° C | 35% | 1035.7 hPa | 0 mm | - | 570 W/m² | - |
| 1777535626 | 9.44° C | 37% | 1035.7 hPa | 0 mm | - | 540 W/m² | - |
| 1777534730 | 8.33° C | 42% | 1035.7 hPa | 0 mm | - | 509 W/m² | - |
| 1777533826 | 7.78° C | 44% | 1035.8 hPa | 0 mm | - | 473 W/m² | - |
| 1777532926 | 6.67° C | 47% | 1035.9 hPa | 0 mm | - | 436 W/m² | - |
| 1777532025 | 5.56° C | 51% | 1036 hPa | 0 mm | - | 397 W/m² | - |
| 1777531126 | 4.44° C | 54% | 1035.7 hPa | 0 mm | - | 357 W/m² | - |
| 1777530226 | 3.89° C | 56% | 1035.7 hPa | 0 mm | - | 311 W/m² | - |
| 1777529327 | 2.22° C | 61% | 1035.8 hPa | 0 mm | - | 266 W/m² | - |
| 1777528430 | 1.11° C | 67% | 1035.8 hPa | 0 mm | - | 222 W/m² | - |
| 1777527527 | 0° C | 69% | 1035.6 hPa | 0 mm | - | 177 W/m² | - |
| 1777526628 | -1.11° C | 71% | 1035.7 hPa | 0 mm | - | 141 W/m² | - |
| 1777525726 | -2.22° C | 74% | 1035.3 hPa | 0 mm | - | 104 W/m² | - |
| 1777524826 | -3.89° C | 78% | 1035.5 hPa | 0 mm | - | 72 W/m² | - |
| 1777523927 | -5° C | 75% | 1035.4 hPa | 0 mm | - | 48 W/m² | - |
| 1777523026 | -5° C | 75% | 1035.3 hPa | 0 mm | - | 22 W/m² | - |
* Rain latest hour (hover to see other rain measurements)
** Current wind speed in m/s (hover to see current wind gust speed)